[[{"header":{"parameterUnit":"m.s-1","parameterCategory":1,"la1":30.2991,"la2":30.254,"lo1":-89.0895,"lo2":-89.0444,"dy":0.0017,"dx":0.0017,"nx":28,"ny":28,"refTime":"2025-01-26T03:00:00:Z","depth":0,"parameterNumber":2,"parameterNumberName":"U-component_of_WINDS"},"data":[0,0,0,0,0,0,0,0,0,0,0,0,0,0,0,0,0,0,0,0,0,0,0,0,0,0,0,0,0,0,0,0,0,0,0,0,0,0,0,0,0,0,0,0,0,0,0,0,0,0,0,0,0,0,0,0,0,0,-3.1901,-3.1902,0,-3.1927,-3.1928,-3.1928,-3.1913,-3.1912,-3.1911,-3.1911,-3.1937,-3.1938,-3.1939,0,0,0,0,0,0,0,0,0,0,0,0,0,-3.1838,-3.1839,-3.1901,-3.1902,-3.1902,-3.1927,-3.1928,-3.1928,-3.1913,-3.1912,-3.1911,-3.191,-3.1936,-3.1938,-3.1939,0,0,0,0,0,0,0,0,0,0,0,0,0,-3.1865,-3.184,-3.1901,-3.1897,-3.1897,-3.1927,-3.1928,-3.1928,-3.1913,-3.1912,-3.1911,-3.191,-3.1936,-3.1938,-3.194,-3.1974,0,0,-3.1946,-3.1947,0,0,0,0,0,0,0,0,-3.1863,-3.1867,-3.1898,-3.1898,-3.1898,-3.1916,-3.1915,-3.1944,-3.1913,-3.1907,-3.1911,-3.1909,-3.1931,-3.1933,-3.194,-3.1976,-3.1977,-3.1946,-3.1947,-3.1948,-3.1949,0,0,0,0,0,0,0,-3.1862,-3.1866,-3.1912,-3.1898,-3.1898,-3.1894,-3.1897,-3.192,-3.1925,-3.1908,-3.1907,-3.191,-3.193,-3.1938,-3.1941,-3.1977,-3.1946,-3.1948,-3.1949,-3.195,-3.2043,-3.2044,0,0,0,0,0,0,-3.186,-3.1865,-3.1911,-3.1912,-3.1878,-3.1896,-3.1899,-3.1911,-3.1924,-3.1925,-3.1911,-3.1909,-3.1935,-3.1938,-3.1942,-3.1983,-3.1948,-3.195,-3.1951,-3.2041,-3.2043,-3.2044,0,0,0,0,0,0,-3.1859,-3.1864,-3.191,-3.1888,-3.1894,-3.1899,-3.1912,-3.1912,-3.192,-3.1927,-3.1927,-3.1918,-3.1935,-3.1939,-3.1966,-3.1983,-3.1951,-3.1953,-3.204,-3.2042,-3.2043,-3.2065,0,0,0,0,0,0,-3.1857,-3.1864,-3.1877,-3.1889,-3.1895,-3.1934,-3.1913,-3.1913,-3.1924,-3.1922,-3.1934,-3.1935,-3.1934,-3.1963,-3.1969,-3.1986,-3.1955,-3.2038,-3.2041,-3.2043,-3.2063,-3.2068,-3.2072,0,0,0,0,0,-3.1855,-3.1882,-3.1878,-3.1883,-3.1912,-3.1935,-3.1939,-3.1937,-3.1925,-3.1938,-3.1943,-3.1934,-3.1981,-3.1966,-3.1972,-3.199,-3.2037,-3.204,-3.2043,-3.2061,-3.2067,-3.2071,0,0,0,0,0,0,-3.1872,-3.1883,-3.1879,-3.1911,-3.1922,-3.1933,-3.1949,-3.1943,-3.1958,-3.1956,-3.1953,-3.1956,-3.1985,-3.1991,-3.1974,-3.2024,-3.2007,-3.2011,-3.2019,-3.2025,-3.2029,-3.2026,-3.1956,0,0,0,0,0,-3.1879,-3.1898,-3.1907,-3.1934,-3.194,-3.1944,-3.1954,-3.1952,-3.1964,-3.1968,-3.1975,-3.1986,-3.2003,-3.2015,-3.2031,-3.2065,-3.2067,-3.208,-3.2084,-3.2087,-3.209,-3.2108,-3.2114,-3.2053,-3.2053,-3.2053,0,0,-3.1895,-3.1904,-3.1915,-3.1938,-3.1946,-3.1965,-3.1948,-3.1968,-3.1982,-3.1971,-3.1998,-3.2003,-3.2016,-3.2047,-3.206,-3.2052,-3.2108,-3.2091,-3.2094,-3.2095,-3.2111,-3.2117,-3.2122,-3.2055,-3.2055,-3.2054,0,0,-3.1932,-3.1941,-3.1965,-3.1974,-3.1987,-3.199,-3.1996,-3.2007,-3.201,-3.2037,-3.2029,-3.2046,-3.2076,-3.2085,-3.2094,-3.2136,-3.2129,-3.2142,-3.2163,-3.2181,-3.2185,-3.2189,-3.2204,-3.2209,-3.2145,-3.2145,-3.2145,0,-3.195,-3.1978,-3.1977,-3.1998,-3.2008,-3.2001,-3.2024,-3.2033,-3.2051,-3.2058,-3.2049,-3.2086,-3.2094,-3.2127,-3.2137,-3.2145,-3.2151,-3.2139,-3.2185,-3.2189,-3.2193,-3.2206,-3.2212,-3.2147,-3.2146,-3.2146,-3.2146,0,-3.1998,-3.2018,-3.2035,-3.2053,-3.2065,-3.2087,-3.209,-3.2103,-3.2101,-3.2104,-3.2131,-3.2141,-3.2159,-3.2167,-3.2165,-3.22,-3.2194,-3.2185,-3.2167,-3.22,-3.2212,-3.2218,-3.2149,-3.2148,-3.2148,-3.2147,0,0,-3.2045,-3.2063,-3.2069,-3.2077,-3.2092,-3.2107,-3.213,-3.2148,-3.2158,-3.2171,-3.2189,-3.2216,-3.2208,-3.2217,-3.2217,-3.2232,-3.2264,-3.2221,-3.2221,-3.2228,-3.2302,-3.2307,-3.2313,-3.226,-3.2261,-3.2262,-3.23,0,-3.2082,-3.212,-3.2121,-3.2156,-3.2174,-3.2168,-3.2187,-3.2199,-3.2203,-3.2219,-3.2224,-3.2242,-3.2231,-3.2236,-3.2252,-3.2257,-3.2279,-3.2255,-3.2276,-3.2277,-3.2271,-3.232,-3.2326,-3.2361,-3.2305,-3.2306,-3.2307,0,-3.213,-3.2145,-3.2182,-3.2195,-3.2202,-3.2219,-3.2236,-3.2252,-3.2265,-3.2267,-3.2279,-3.2276,-3.2298,-3.2282,-3.2313,-3.2296,-3.2306,-3.231,-3.2311,-3.2312,-3.2292,-3.232,-3.2373,-3.2377,-3.2315,-3.2314,-3.2314,0,-3.2159,-3.2188,-3.2214,-3.2222,-3.2237,-3.225,-3.2257,-3.2269,-3.228,-3.2295,-3.2301,-3.2319,-3.2328,-3.2342,-3.2344,-3.2332,-3.2375,-3.2358,-3.2376,-3.2376,-3.2384,-3.2383,-3.2437,-3.2393,-3.2393,-3.2393,-3.2393,0,-3.2199,-3.2222,-3.2227,-3.2243,-3.2268,-3.227,-3.2295,-3.2301,-3.2312,-3.2329,-3.2325,-3.2341,-3.2343,-3.236,-3.2362,-3.2387,-3.2392,-3.2394,-3.2393,-3.2393,-3.2392,-3.2397,-3.2394,-3.2394,-3.2394,-3.2394,-3.2393,0,-3.2234,-3.2239,-3.2267,-3.228,-3.2284,-3.2302,-3.2313,-3.2328,-3.2333,-3.2354,-3.2359,-3.2366,-3.2386,-3.239,-3.2413,-3.2414,-3.2444,-3.2442,-3.2439,-3.2438,-3.2455,-3.2453,-3.2513,-3.2521,-3.2473,-3.2474,-3.2474,0,-3.2259,-3.2276,-3.2291,-3.2302,-3.231,-3.2328,-3.2339,-3.2342,-3.2354,-3.2371,-3.2384,-3.2403,-3.2418,-3.2449,-3.2457,-3.2474,-3.2472,-3.2492,-3.2474,-3.2473,-3.2471,-3.2469,-3.247,-3.2494,-3.2495,-3.2495,-3.2496,0,-3.2302,-3.2303,-3.232,-3.2337,-3.2351,-3.2365,-3.2378,-3.2387,-3.2392,-3.2405,-3.2425,-3.2437,-3.2461,-3.248,-3.2498,-3.2505,-3.2501,-3.2502,-3.2506,-3.2505,-3.2502,-3.2503,-3.2446,-3.25,-3.2499,-3.2499,-3.2499,-3.2499,-3.2331,-3.2346,-3.2359,-3.2378,-3.2388,-3.2401,-3.2415,-3.2422,-3.2439,-3.2458,-3.2459,-3.2481,-3.2494,-3.2518,-3.2527,-3.2544,-3.2537,-3.2545,-3.2546,-3.2548,-3.2549,-3.2501,-3.2547,-3.2547,-3.2547,-3.2547,-3.2547,0,-3.2372,-3.2381,-3.2398,-3.2417,-3.2431,-3.2427,-3.2442,-3.2454,-3.2473,-3.2486,-3.2502,-3.2525,-3.2543,-3.2553,-3.2571,-3.2583,-3.2581,-3.2587,-3.2586,-3.2587,-3.2554,-3.2547,-3.2588,-3.2588,-3.2588,-3.2588,-3.2588,-3.2588,-3.2395,-3.242,-3.2424,-3.2454,-3.2462,-3.2483,-3.2492,-3.2504,-3.2514,-3.254,-3.2555,-3.2562,-3.2573,-3.2593,-3.261,-3.2612,-3.2618,-3.2625,-3.2626,-3.2594,-3.259,-3.2586,-3.2579,-3.2627,-3.2627,-3.2658,-3.2659,-3.2659]},{"header":{"parameterUnit":"m.s-1","parameterCategory":1,"la1":30.2991,"la2":30.254,"lo1":-89.0895,"lo2":-89.0444,"dy":0.0017,"dx":0.0017,"nx":28,"ny":28,"refTime":"2025-01-26T03:00:00:Z","depth":0,"parameterNumber":3,"parameterNumberName":"V-component_of_WINDS"},"data":[0,0,0,0,0,0,0,0,0,0,0,0,0,0,0,0,0,0,0,0,0,0,0,0,0,0,0,0,0,0,0,0,0,0,0,0,0,0,0,0,0,0,0,0,0,0,0,0,0,0,0,0,0,0,0,0,0,0,3.0119,3.0119,0,3.0151,3.0152,3.0152,3.0204,3.0205,3.0206,3.0207,3.0238,3.0238,3.0238,0,0,0,0,0,0,0,0,0,0,0,0,0,3.0102,3.0102,3.0119,3.0119,3.012,3.0151,3.0152,3.0152,3.0204,3.0205,3.0206,3.0207,3.0238,3.0238,3.0238,0,0,0,0,0,0,0,0,0,0,0,0,0,3.0119,3.0102,3.0119,3.015,3.0153,3.0151,3.0152,3.0152,3.0204,3.0205,3.0207,3.0208,3.0238,3.0238,3.0238,3.0209,0,0,3.0238,3.0238,0,0,0,0,0,0,0,0,3.0118,3.012,3.0145,3.0147,3.0151,3.0175,3.0157,3.0171,3.0203,3.0184,3.0207,3.0209,3.0216,3.0218,3.0221,3.021,3.0212,3.0238,3.0238,3.0238,3.0238,0,0,0,0,0,0,0,3.0117,3.0119,3.0132,3.0145,3.0149,3.0162,3.0166,3.016,3.0192,3.0186,3.019,3.0193,3.0218,3.0221,3.0222,3.0212,3.0238,3.0238,3.0238,3.0238,3.0182,3.0181,0,0,0,0,0,0,3.0112,3.0118,3.0131,3.0133,3.0138,3.0161,3.0165,3.0166,3.0192,3.0197,3.0192,3.0195,3.022,3.0222,3.0223,3.0193,3.0238,3.0238,3.0238,3.0183,3.0182,3.018,0,0,0,0,0,0,3.0111,3.0112,3.0129,3.0126,3.0129,3.0159,3.016,3.0166,3.0169,3.0196,3.0202,3.0189,3.0221,3.0223,3.0213,3.0194,3.0238,3.0238,3.0185,3.0183,3.0181,3.013,0,0,0,0,0,0,3.011,3.0112,3.0101,3.0126,3.0129,3.0118,3.0159,3.0165,3.0168,3.0173,3.0195,3.02,3.0223,3.0213,3.0213,3.0195,3.0238,3.0187,3.0184,3.0182,3.0133,3.0126,3.012,0,0,0,0,0,3.0109,3.0084,3.01,3.0101,3.0117,3.0117,3.0119,3.0147,3.0167,3.0156,3.0174,3.0199,3.0196,3.0211,3.0212,3.0194,3.0188,3.0185,3.0182,3.0136,3.0128,3.012,0,0,0,0,0,0,3.0056,3.0088,3.0106,3.0088,3.01,3.0126,3.0114,3.0136,3.0142,3.0146,3.0179,3.0183,3.0169,3.018,3.0196,3.0168,3.0196,3.0193,3.0161,3.0153,3.0147,3.0145,3.0238,0,0,0,0,0,3.0042,3.004,3.0068,3.005,3.0055,3.0083,3.0084,3.0104,3.0118,3.0123,3.014,3.0151,3.0153,3.0154,3.0157,3.0135,3.0141,3.0123,3.0116,3.0111,3.0108,3.0099,3.0092,3.0169,3.0169,3.017,0,0,3.0013,3.0031,3.0027,3.004,3.0051,3.0049,3.0087,3.0082,3.0081,3.0122,3.0114,3.0126,3.0142,3.0126,3.012,3.0135,3.0088,3.0106,3.0102,3.0102,3.0095,3.0088,3.0081,3.0167,3.0168,3.0168,0,0,2.996,2.9973,2.996,2.9971,2.9988,3.0007,3.0004,3.0027,3.0038,3.003,3.0061,3.006,3.0062,3.0072,3.0077,3.003,3.0053,3.0029,2.9995,2.9987,2.9981,2.9975,2.996,2.9954,3.0026,3.0026,3.0026,0,2.9923,2.9921,2.995,2.9944,2.995,2.9987,2.9975,2.9983,3.0,3.0003,3.0019,3.0024,3.0037,3.0025,3.0013,3.0016,3.0014,3.0028,2.9979,2.9974,2.997,2.9956,2.995,3.0023,3.0024,3.0024,3.0024,0,2.9874,2.9872,2.986,2.9877,2.988,2.9871,2.9899,2.9899,2.9919,2.9936,2.9929,2.9946,2.9954,2.9952,2.997,2.9943,2.9952,2.9973,3.0003,2.9959,2.9947,2.9941,3.0019,3.002,3.0021,3.0022,0,0,2.9789,2.9823,2.9818,2.9827,2.9849,2.9848,2.9841,2.985,2.985,2.986,2.9856,2.9857,2.9877,2.9883,2.9903,2.9895,2.9859,2.9918,2.9919,2.9908,2.9832,2.9818,2.9811,2.9874,2.9873,2.9873,2.9832,0,2.9742,2.9732,2.9759,2.9743,2.9743,2.9778,2.9773,2.9785,2.9802,2.9804,2.9821,2.9823,2.9848,2.9853,2.9846,2.9865,2.9845,2.9868,2.9872,2.9871,2.9869,2.9804,2.9788,2.9749,2.9827,2.9826,2.9825,0,2.9686,2.9695,2.9679,2.9704,2.9704,2.9699,2.971,2.9711,2.9727,2.9739,2.9746,2.977,2.9766,2.9793,2.9787,2.9803,2.9806,2.9815,2.9814,2.9817,2.9847,2.9807,2.9737,2.9732,2.9818,2.9818,2.9819,0,2.9628,2.9635,2.9628,2.9634,2.9662,2.9657,2.9668,2.9686,2.969,2.9699,2.9703,2.971,2.9715,2.9721,2.9747,2.9764,2.9739,2.9768,2.975,2.975,2.9745,2.9745,2.9676,2.9743,2.9743,2.9744,2.9744,0,2.9573,2.9563,2.9602,2.9597,2.9587,2.9618,2.9606,2.9621,2.9637,2.9636,2.9666,2.9665,2.9698,2.97,2.972,2.9714,2.9715,2.9726,2.9732,2.9724,2.9723,2.9728,2.9732,2.9742,2.9742,2.9743,2.9743,0,2.9507,2.9533,2.9527,2.9554,2.9561,2.9552,2.9576,2.9573,2.9591,2.959,2.9591,2.962,2.9625,2.9651,2.966,2.9674,2.9661,2.9671,2.9656,2.966,2.9642,2.9644,2.9575,2.9569,2.9638,2.9637,2.9637,0,2.9472,2.9465,2.9492,2.9494,2.9504,2.9507,2.9512,2.9542,2.9545,2.9564,2.9559,2.9566,2.9573,2.9579,2.9601,2.9609,2.9621,2.9596,2.9622,2.9616,2.9623,2.9624,2.9624,2.9591,2.959,2.9589,2.9588,0,2.9407,2.942,2.9426,2.9437,2.9442,2.9452,2.9463,2.9463,2.9497,2.9499,2.9505,2.9511,2.9522,2.9529,2.9541,2.9553,2.9577,2.958,2.9577,2.957,2.9563,2.9569,2.9643,2.9582,2.9582,2.9583,2.9583,2.9584,2.9356,2.9353,2.9372,2.9378,2.939,2.94,2.94,2.9419,2.9424,2.9436,2.9453,2.9457,2.9474,2.9493,2.9503,2.9507,2.952,2.9514,2.9514,2.9512,2.9509,2.956,2.9508,2.9509,2.9509,2.9509,2.9509,0,2.9295,2.9309,2.9315,2.9331,2.9336,2.9358,2.9372,2.9375,2.9378,2.9392,2.9399,2.9406,2.9414,2.9436,2.9446,2.9445,2.9456,2.9447,2.9448,2.9451,2.9496,2.9499,2.9438,2.9438,2.9438,2.9438,2.9438,2.9438,2.9264,2.9259,2.9275,2.9277,2.9292,2.9296,2.9303,2.9313,2.9325,2.9332,2.9338,2.9353,2.9371,2.9383,2.9391,2.9398,2.9401,2.9388,2.9398,2.944,2.9447,2.9454,2.9457,2.9388,2.9388,2.9353,2.9353,2.9353]}]]